Location: Degersen
(52.2871°N, 9.5716°E)
Time: 06:57:08
(UTC+00:00)

Lacrosse 5 rocket - Pass Details

Date: 20 January 2026
Orbit: 400 x 481 km, 57.0° (Epoch: 18 February)

Event Time Altitude Azimuth Distance (km) Brightness Sun altitude
Exits shadow 04:09:32 25° 58° (ENE) 1,018 3.2 -28.4°
Drops below altitude 10° 04:11:27 10° 77° (ENE) 1,681 4.7 -28.1°
Sets 04:13:43 0° 85° (E) 2,560 6.0 -27.8°
